NTHWK1 KADW-KDAA

Flight info

Callsign NTHWK1
Flight time 0h 41m
Altitude 4000
Route R1 R3 R5 R8 R1
Aircraft H60/L-G/SB2

Departure

Time 2026-05-06 06:21
Airport Joint Base Andrews (KADW)

Arrival

Time 2026-05-06 07:02
Airport Davison Army Air Field (KDAA)
Time Latitude Longitude Altitude Speed Heading
2026-05-06 06:06 38.85376 -77.01455 9 ft 0 kts 306°
2026-05-06 06:15 38.85375 -77.01461 9 ft 1 kts 68°
2026-05-06 06:15 38.85407 -77.01428 14 ft 13 kts 32°
2026-05-06 06:15 38.85596 -77.01279 223 ft 63 kts 31°
2026-05-06 06:16 38.86253 -77.00725 512 ft 150 kts 37°
2026-05-06 06:16 38.87037 -76.99684 267 ft 177 kts 79°
2026-05-06 06:16 38.87499 -76.98273 148 ft 163 kts 69°
2026-05-06 06:16 38.88047 -76.97131 252 ft 156 kts 53°
2026-05-06 06:17 38.88966 -76.96355 183 ft 157 kts 31°
2026-05-06 06:17 38.90029 -76.96041 283 ft 159 kts 15°
2026-05-06 06:17 38.91069 -76.95501 229 ft 164 kts 27°
2026-05-06 06:17 38.91776 -76.94642 390 ft 133 kts 69°
2026-05-06 06:18 38.92456 -76.93787 409 ft 157 kts 18°
2026-05-06 06:18 38.93500 -76.94034 176 ft 148 kts 338°
2026-05-06 06:18 38.94380 -76.93986 358 ft 133 kts 49°
2026-05-06 06:18 38.94789 -76.92916 480 ft 134 kts 74°
2026-05-06 06:19 38.95143 -76.91787 682 ft 145 kts 67°
2026-05-06 06:19 38.95937 -76.90879 597 ft 160 kts 31°
2026-05-06 06:19 38.96920 -76.90207 519 ft 157 kts 33°
2026-05-06 06:19 38.97864 -76.89512 576 ft 159 kts 34°
2026-05-06 06:20 38.98315 -76.88442 336 ft 131 kts 123°
2026-05-06 06:20 38.97683 -76.87864 535 ft 120 kts 149°
2026-05-06 06:20 38.96813 -76.87632 471 ft 138 kts 181°
2026-05-06 06:20 38.95843 -76.87725 428 ft 137 kts 183°
2026-05-06 06:21 38.95271 -76.87717 1330 ft 67 kts 165°
2026-05-06 06:21 38.94370 -76.87835 277 ft 156 kts 181°
2026-05-06 06:21 38.93579 -76.88508 272 ft 144 kts 226°
2026-05-06 06:21 38.92721 -76.88947 371 ft 133 kts 184°
2026-05-06 06:22 38.91831 -76.89069 697 ft 128 kts 189°
2026-05-06 06:22 38.90969 -76.88838 574 ft 133 kts 133°
2026-05-06 06:22 38.90928 -76.87753 480 ft 124 kts 51°
2026-05-06 06:22 38.91731 -76.87383 477 ft 108 kts 84°
2026-05-06 06:23 38.91453 -76.87383 719 ft 107 kts 227°
2026-05-06 06:23 38.90887 -76.88299 481 ft 153 kts 191°
2026-05-06 06:23 38.89854 -76.88137 975 ft 149 kts 175°
2026-05-06 06:23 38.88902 -76.87808 1737 ft 142 kts 170°
2026-05-06 06:24 38.87868 -76.87362 1752 ft 166 kts 172°
2026-05-06 06:24 38.86724 -76.87012 1190 ft 160 kts 179°
2026-05-06 06:24 38.85788 -76.87078 1043 ft 120 kts 189°
2026-05-06 06:24 38.84971 -76.87104 807 ft 117 kts 181°
2026-05-06 06:25 38.84199 -76.87079 609 ft 95 kts 181°
2026-05-06 06:25 38.83705 -76.87083 603 ft 50 kts 177°
2026-05-06 06:25 38.83169 -76.87066 529 ft 42 kts 175°
2026-05-06 06:26 38.82708 -76.87070 420 ft 93 kts 183°
2026-05-06 06:26 38.82151 -76.87072 351 ft 66 kts 182°
2026-05-06 06:26 38.81741 -76.87078 281 ft 47 kts 179°
2026-05-06 06:26 38.81577 -76.87066 294 ft 2 kts 178°
2026-05-06 06:27 38.81594 -76.87066 277 ft 0 kts 173°
2026-05-06 06:27 38.81643 -76.87066 277 ft 9 kts 169°
2026-05-06 06:27 38.81650 -76.87068 277 ft 0 kts 169°
2026-05-06 06:28 38.81650 -76.87067 277 ft 0 kts 180°
2026-05-06 06:29 38.81648 -76.87068 279 ft 2 kts 178°
2026-05-06 06:29 38.81507 -76.87072 368 ft 44 kts 173°
2026-05-06 06:29 38.81261 -76.87073 292 ft 14 kts 172°
2026-05-06 06:30 38.81266 -76.87074 396 ft 12 kts 171°
2026-05-06 06:30 38.80866 -76.87327 429 ft 127 kts 216°
2026-05-06 06:30 38.80472 -76.88260 969 ft 110 kts 248°
2026-05-06 06:30 38.80988 -76.89249 1122 ft 182 kts 321°
2026-05-06 06:31 38.82035 -76.90260 563 ft 178 kts 301°
2026-05-06 06:31 38.82105 -76.91723 602 ft 162 kts 257°
2026-05-06 06:31 38.81923 -76.93105 956 ft 149 kts 256°
2026-05-06 06:31 38.81676 -76.94537 847 ft 178 kts 250°
2026-05-06 06:32 38.81266 -76.95990 644 ft 173 kts 245°
2026-05-06 06:32 38.80746 -76.97368 465 ft 164 kts 224°
2026-05-06 06:32 38.79827 -76.98077 681 ft 154 kts 203°
2026-05-06 06:32 38.78777 -76.98457 565 ft 160 kts 205°
2026-05-06 06:33 38.78101 -76.99553 569 ft 164 kts 245°
2026-05-06 06:33 38.77473 -77.00651 504 ft 147 kts 211°
2026-05-06 06:33 38.76598 -77.01297 661 ft 151 kts 211°
2026-05-06 06:33 38.75840 -77.02311 460 ft 170 kts 238°
2026-05-06 06:34 38.75634 -77.03799 509 ft 166 kts 267°
2026-05-06 06:34 38.75612 -77.05227 805 ft 156 kts 265°
2026-05-06 06:34 38.75556 -77.06696 748 ft 175 kts 259°
2026-05-06 06:34 38.75991 -77.08084 284 ft 162 kts 343°
2026-05-06 06:35 38.77071 -77.08165 621 ft 171 kts
2026-05-06 06:35 38.78329 -77.07771 492 ft 195 kts 11°
2026-05-06 06:35 38.79684 -77.07792 313 ft 197 kts 343°
2026-05-06 06:35 38.80205 -77.08955 330 ft 147 kts 261°
2026-05-06 06:36 38.80273 -77.10313 600 ft 166 kts 269°
2026-05-06 06:36 38.80023 -77.11763 442 ft 165 kts 248°
2026-05-06 06:36 38.79695 -77.13164 257 ft 163 kts 251°
2026-05-06 06:36 38.79482 -77.14522 357 ft 151 kts 255°
2026-05-06 06:37 38.79246 -77.15817 476 ft 148 kts 253°
2026-05-06 06:37 38.79230 -77.17096 571 ft 137 kts 295°
2026-05-06 06:37 38.79889 -77.16888 397 ft 134 kts 68°
2026-05-06 06:37 38.80526 -77.15886 365 ft 148 kts 54°
2026-05-06 06:38 38.81137 -77.14795 402 ft 154 kts 63°
2026-05-06 06:38 38.81672 -77.13552 317 ft 163 kts 67°
2026-05-06 06:38 38.82399 -77.12421 322 ft 165 kts 54°
2026-05-06 06:38 38.83011 -77.11238 449 ft 160 kts 69°
2026-05-06 06:39 38.83425 -77.09879 350 ft 164 kts 77°
2026-05-06 06:39 38.84006 -77.08604 293 ft 171 kts 54°
2026-05-06 06:39 38.84969 -77.07709 244 ft 170 kts 36°
2026-05-06 06:39 38.85987 -77.06961 326 ft 166 kts 33°
2026-05-06 06:40 38.86666 -77.06486 471 ft 164 kts 32°
2026-05-06 06:40 38.88067 -77.05632 172 ft 175 kts 353°
2026-05-06 06:40 38.88943 -77.05636 163 ft 80 kts 81°
2026-05-06 06:40 38.88739 -77.05388 225 ft 71 kts 139°
2026-05-06 06:41 38.88314 -77.04930 89 ft 76 kts 136°
2026-05-06 06:41 38.88014 -77.04380 72 ft 75 kts 130°
2026-05-06 06:41 38.88095 -77.03814 168 ft 53 kts 109°
2026-05-06 06:41 38.88096 -77.03271 274 ft 86 kts 121°
2026-05-06 06:42 38.87671 -77.02581 93 ft 105 kts 146°
2026-05-06 06:42 38.87384 -77.01897 242 ft 78 kts 95°
2026-05-06 06:42 38.87743 -77.01596 526 ft 76 kts 17°
2026-05-06 06:42 38.88374 -77.01607 524 ft 116 kts
2026-05-06 06:43 38.88910 -77.02117 340 ft 100 kts 277°
2026-05-06 06:43 38.89043 -77.03105 312 ft 114 kts 270°
2026-05-06 06:43 38.89139 -77.03426 304 ft 114 kts 300°
2026-05-06 06:45 38.89409 -77.03649 141 ft 72 kts 27°
2026-05-06 06:45 38.89526 -77.03661 152 ft 18 kts 358°
2026-05-06 06:45 38.89627 -77.03651 90 ft 3 kts 354°
2026-05-06 06:46 38.89649 -77.03655 89 ft 2 kts 353°
2026-05-06 06:46 38.89684 -77.03662 67 ft 5 kts 352°
2026-05-06 06:46 38.89685 -77.03661 59 ft 0 kts 353°
2026-05-06 06:46 38.89700 -77.03663 58 ft 0 kts 73°
2026-05-06 06:48 38.89700 -77.03661 80 ft 4 kts 63°
2026-05-06 06:48 38.89530 -77.03554 224 ft 86 kts 146°
2026-05-06 06:49 38.88748 -77.03201 309 ft 130 kts 162°
2026-05-06 06:49 38.87859 -77.02734 126 ft 145 kts 157°
2026-05-06 06:49 38.86998 -77.02263 178 ft 132 kts 168°
2026-05-06 06:49 38.86106 -77.01896 151 ft 135 kts 167°
2026-05-06 06:50 38.85221 -77.02090 169 ft 117 kts 191°
2026-05-06 06:50 38.84801 -77.01588 354 ft 105 kts 78°
2026-05-06 06:50 38.85547 -77.01241 248 ft 110 kts 358°
2026-05-06 06:50 38.85886 -77.01143 308 ft 19 kts 131°
2026-05-06 06:51 38.85577 -77.01191 219 ft 9 kts 210°
2026-05-06 06:51 38.85557 -77.01211 131 ft 9 kts 204°
2026-05-06 06:51 38.85515 -77.01246 34 ft 3 kts
2026-05-06 06:51 38.85530 -77.01232 24 ft 9 kts 61°
2026-05-06 06:52 38.85481 -77.01184 28 ft 6 kts 166°
2026-05-06 06:52 38.85472 -77.01189 27 ft 2 kts 184°
2026-05-06 06:52 38.85477 -77.01187 40 ft 1 kts 180°
2026-05-06 06:52 38.85471 -77.01186 174 ft 0 kts 180°
2026-05-06 06:53 38.85450 -77.01179 338 ft 5 kts 24°
2026-05-06 06:53 38.85768 -77.00896 266 ft 128 kts 44°
2026-05-06 06:53 38.86318 -77.00156 263 ft 86 kts 58°
2026-05-06 06:53 38.86690 -76.99547 257 ft 88 kts 68°
2026-05-06 06:54 38.86802 -76.99045 75 ft 24 kts 189°
2026-05-06 06:54 38.86808 -76.99156 73 ft 13 kts 183°
2026-05-06 06:54 38.86735 -76.99200 24 ft 1 kts 180°
2026-05-06 06:54 38.86718 -76.99203 9 ft 0 kts 183°
2026-05-06 06:55 38.86706 -76.99186 80 ft 16 kts 180°
2026-05-06 06:56 38.86406 -76.99024 343 ft 96 kts 162°
2026-05-06 06:56 38.85643 -76.99064 599 ft 121 kts 186°
2026-05-06 06:56 38.84666 -76.99167 479 ft 162 kts 185°
2026-05-06 06:56 38.83517 -76.99188 403 ft 159 kts 179°
2026-05-06 06:57 38.82444 -76.99217 812 ft 152 kts 186°
2026-05-06 06:57 38.81421 -76.99552 973 ft 157 kts 197°
2026-05-06 06:57 38.80341 -77.00224 428 ft 189 kts 211°
2026-05-06 06:57 38.79687 -77.01445 389 ft 169 kts 252°
2026-05-06 06:58 38.79225 -77.02870 190 ft 163 kts 256°
2026-05-06 06:58 38.79146 -77.04261 710 ft 167 kts 261°
2026-05-06 06:58 38.79231 -77.05859 299 ft 184 kts 277°
2026-05-06 06:58 38.79795 -77.07291 495 ft 186 kts 299°
2026-05-06 06:59 38.80216 -77.08851 249 ft 181 kts 273°
2026-05-06 06:59 38.80318 -77.10439 263 ft 182 kts 268°
2026-05-06 06:59 38.80012 -77.11877 352 ft 160 kts 255°
2026-05-06 06:59 38.79664 -77.13129 465 ft 138 kts 232°
2026-05-06 07:00 38.78900 -77.13683 444 ft 130 kts 200°
2026-05-06 07:00 38.78017 -77.14090 352 ft 136 kts 200°
2026-05-06 07:00 38.77187 -77.14581 455 ft 133 kts 204°
2026-05-06 07:00 38.76396 -77.15189 541 ft 127 kts 218°
2026-05-06 07:01 38.75712 -77.15896 720 ft 130 kts 212°
2026-05-06 07:01 38.74877 -77.16485 525 ft 145 kts 204°
2026-05-06 07:01 38.74075 -77.17044 654 ft 119 kts 210°
2026-05-06 07:01 38.73329 -77.17589 812 ft 126 kts 205°
2026-05-06 07:02 38.72478 -77.18003 524 ft 135 kts 196°
2026-05-06 07:02 38.71880 -77.18288 191 ft 32 kts 167°
2026-05-06 07:02 38.71741 -77.18153 122 ft 24 kts 147°
2026-05-06 07:02 38.71652 -77.18044 61 ft 6 kts 135°
2026-05-06 07:03 38.71649 -77.18041 51 ft 0 kts 135°
2026-05-06 07:08 38.71648 -77.18041 60 ft 2 kts 134°
2026-05-06 07:09 38.71526 -77.17956 288 ft 46 kts 134°
2026-05-06 07:09 38.70897 -77.17763 332 ft 118 kts 179°
2026-05-06 07:09 38.70501 -77.18711 367 ft 137 kts 275°
2026-05-06 07:09 38.71207 -77.19348 820 ft 150 kts 350°
2026-05-06 07:10 38.72342 -77.19375 774 ft 172 kts
2026-05-06 07:10 38.73559 -77.19409 863 ft 171 kts
2026-05-06 07:10 38.74704 -77.18822 823 ft 186 kts 30°
2026-05-06 07:10 38.75888 -77.18257 836 ft 175 kts 13°
2026-05-06 07:11 38.77098 -77.18238 913 ft 182 kts 353°
2026-05-06 07:11 38.78324 -77.18402 1075 ft 167 kts 353°
2026-05-06 07:11 38.79318 -77.18955 1224 ft 154 kts 304°
2026-05-06 07:11 38.79898 -77.20007 1570 ft 143 kts 291°
2026-05-06 07:12 38.80751 -77.20928 1549 ft 175 kts 314°
2026-05-06 07:12 38.81896 -77.21679 1396 ft 194 kts 332°
2026-05-06 07:12 38.83296 -77.21952 840 ft 205 kts 354°
2026-05-06 07:12 38.84643 -77.21970 737 ft 185 kts 360°
2026-05-06 07:13 38.85937 -77.21917 771 ft 187 kts
2026-05-06 07:13 38.86801 -77.21961 685 ft 188 kts 353°
2026-05-06 07:13 38.88076 -77.22111 703 ft 176 kts 354°
2026-05-06 07:13 38.89297 -77.21907 789 ft 174 kts 10°
2026-05-06 07:14 38.90432 -77.21589 1138 ft 164 kts 16°
2026-05-06 07:14 38.91485 -77.21099 1529 ft 157 kts 24°
2026-05-06 07:14 38.92421 -77.20454 2221 ft 148 kts 31°
2026-05-06 07:14 38.93352 -77.19629 2694 ft 184 kts 31°
2026-05-06 07:15 38.94539 -77.18687 2400 ft 217 kts 28°
2026-05-06 07:15 38.95947 -77.17827 1530 ft 224 kts 20°
2026-05-06 07:15 38.97350 -77.17129 829 ft 207 kts 26°
2026-05-06 07:15 38.98477 -77.16232 720 ft 173 kts 50°
2026-05-06 07:16 38.99024 -77.15030 1269 ft 143 kts 74°
2026-05-06 07:16 38.99361 -77.13833 1875 ft 161 kts 84°
2026-05-06 07:16 39.00112 -77.12458 1151 ft 211 kts 55°
2026-05-06 07:16 39.00900 -77.11146 809 ft 130 kts 68°
2026-05-06 07:17 39.00542 -77.10079 833 ft 144 kts 136°
2026-05-06 07:17 38.99863 -77.09188 1065 ft 139 kts 142°
2026-05-06 07:17 38.99334 -77.08129 1322 ft 135 kts 138°
2026-05-06 07:17 38.98677 -77.07472 1802 ft 107 kts 165°
2026-05-06 07:18 38.98033 -77.07036 2274 ft 129 kts 148°
2026-05-06 07:18 38.98220 -77.06298 1521 ft 70 kts
2026-05-06 07:18 38.98657 -77.07142 596 ft 147 kts 283°
2026-05-06 07:18 38.98813 -77.08343 690 ft 125 kts 280°
2026-05-06 07:19 38.99311 -77.09167 725 ft 119 kts 321°
2026-05-06 07:19 38.99786 -77.09646 869 ft 43 kts 308°
2026-05-06 07:19 38.99863 -77.09659 758 ft 6 kts 38°
2026-05-06 07:19 38.99877 -77.09627 581 ft 9 kts 33°
2026-05-06 07:20 38.99922 -77.09599 442 ft 5 kts 31°
2026-05-06 07:20 38.99951 -77.09576 324 ft 3 kts 114°
2026-05-06 07:20 38.99959 -77.09567 314 ft 0 kts 134°
2026-05-06 07:20 38.99960 -77.09569 315 ft 0 kts 133°
2026-05-06 07:22 38.99957 -77.09572 474 ft 1 kts 124°
2026-05-06 07:23 39.00208 -77.09149 628 ft 143 kts 62°
2026-05-06 07:23 39.00771 -77.07915 595 ft 169 kts 90°
2026-05-06 07:23 39.00064 -77.06749 600 ft 168 kts 143°
2026-05-06 07:23 38.99749 -77.05594 1885 ft 126 kts 101°
2026-05-06 07:24 39.00355 -77.04610 3216 ft 171 kts 46°
2026-05-06 07:24 39.01312 -77.03542 4082 ft 184 kts 36°
2026-05-06 07:24 39.02156 -77.02393 5020 ft 171 kts 59°
2026-05-06 07:24 39.02312 -77.01015 6041 ft 146 kts 104°
2026-05-06 07:25 39.01905 -76.99830 6929 ft 153 kts 129°
2026-05-06 07:25 39.01324 -76.98697 7570 ft 151 kts 139°
2026-05-06 07:25 39.00916 -76.97376 8057 ft 172 kts 111°
2026-05-06 07:25 39.00817 -76.95784 8409 ft 180 kts 102°
2026-05-06 07:26 39.00557 -76.94253 8810 ft 173 kts 122°
2026-05-06 07:26 38.99778 -76.93130 8952 ft 168 kts 153°
2026-05-06 07:26 38.98681 -76.92597 8808 ft 178 kts 173°
2026-05-06 07:26 38.97389 -76.92239 7840 ft 200 kts 177°
2026-05-06 07:27 38.95980 -76.91857 5923 ft 209 kts 176°
2026-05-06 07:27 38.94577 -76.91583 3900 ft 196 kts 186°
2026-05-06 07:27 38.93266 -76.91501 2677 ft 181 kts 189°
2026-05-06 07:27 38.92086 -76.91468 2427 ft 148 kts 196°
2026-05-06 07:28 38.91459 -76.92344 2762 ft 131 kts 238°
2026-05-06 07:28 38.90958 -76.93230 3520 ft 115 kts 230°
2026-05-06 07:28 38.89653 -76.94808 4438 ft 142 kts 229°
2026-05-06 07:29 38.88661 -76.95220 2611 ft 140 kts 200°
2026-05-06 07:29 38.87604 -76.95486 849 ft 147 kts 194°
2026-05-06 07:29 38.86680 -76.95762 1108 ft 130 kts 196°
2026-05-06 07:29 38.85801 -76.96055 1110 ft 133 kts 196°
2026-05-06 07:30 38.84861 -76.96376 894 ft 144 kts 198°
2026-05-06 07:30 38.83945 -76.96891 745 ft 143 kts 207°
2026-05-06 07:30 38.83047 -76.97523 638 ft 152 kts 208°
2026-05-06 07:30 38.82121 -76.98136 420 ft 143 kts 205°
2026-05-06 07:31 38.81253 -76.98476 582 ft 128 kts 194°
2026-05-06 07:31 38.80344 -76.98663 569 ft 139 kts 186°
2026-05-06 07:31 38.79366 -76.98575 417 ft 144 kts 172°
2026-05-06 07:31 38.78412 -76.98366 402 ft 128 kts 191°
2026-05-06 07:32 38.77631 -76.98997 442 ft 125 kts 210°
2026-05-06 07:32 38.76892 -76.99480 855 ft 117 kts 206°
2026-05-06 07:32 38.76117 -76.99860 1038 ft 124 kts 199°
2026-05-06 07:32 38.75232 -77.00165 962 ft 136 kts 197°
2026-05-06 07:33 38.74308 -77.00464 872 ft 136 kts 194°
2026-05-06 07:33 38.73360 -77.00648 794 ft 139 kts 190°
2026-05-06 07:33 38.72375 -77.00724 622 ft 143 kts 187°
2026-05-06 07:33 38.71352 -77.00786 492 ft 148 kts 184°
2026-05-06 07:34 38.70331 -77.00740 366 ft 146 kts 176°
2026-05-06 07:34 38.69321 -77.00696 301 ft 147 kts 179°
2026-05-06 07:34 38.68311 -77.00706 342 ft 143 kts 183°
2026-05-06 07:34 38.67358 -77.01055 388 ft 143 kts 197°
2026-05-06 07:35 38.66429 -77.01353 489 ft 131 kts 188°
2026-05-06 07:35 38.65746 -77.00793 695 ft 118 kts 123°
2026-05-06 07:35 38.65430 -76.99803 1217 ft 125 kts 124°
2026-05-06 07:35 38.65049 -76.98743 1458 ft 139 kts 134°
2026-05-06 07:36 38.64559 -76.97597 1332 ft 155 kts 130°
2026-05-06 07:36 38.63996 -76.96351 946 ft 167 kts 128°
2026-05-06 07:36 38.63420 -76.95035 486 ft 167 kts 121°
2026-05-06 07:36 38.62927 -76.93801 504 ft 142 kts 122°
2026-05-06 07:37 38.62394 -76.92754 656 ft 145 kts 130°
2026-05-06 07:37 38.62080 -76.91560 523 ft 143 kts 63°
2026-05-06 07:37 38.62867 -76.90825 712 ft 144 kts 35°
2026-05-06 07:37 38.63693 -76.89948 916 ft 161 kts 45°
2026-05-06 07:38 38.64562 -76.88966 843 ft 172 kts 46°
2026-05-06 07:38 38.65480 -76.87937 636 ft 178 kts 44°
2026-05-06 07:38 38.66553 -76.87307 442 ft 162 kts 358°
2026-05-06 07:38 38.67652 -76.87354 683 ft 158 kts 358°
2026-05-06 07:39 38.68786 -76.87371 819 ft 167 kts 358°
2026-05-06 07:39 38.69961 -76.87495 715 ft 175 kts 341°
2026-05-06 07:39 38.71002 -76.88221 548 ft 151 kts 319°
2026-05-06 07:39 38.71762 -76.88992 1048 ft 142 kts 311°
2026-05-06 07:40 38.72598 -76.89812 1146 ft 163 kts 321°
2026-05-06 07:40 38.73605 -76.90430 768 ft 139 kts 334°
2026-05-06 07:40 38.74354 -76.91000 1025 ft 125 kts 320°
2026-05-06 07:40 38.75130 -76.91674 578 ft 125 kts 302°
2026-05-06 07:41 38.75239 -76.92508 376 ft 90 kts 260°
2026-05-06 07:41 38.75045 -76.93031 265 ft 37 kts 232°
2026-05-06 07:41 38.74998 -76.93089 250 ft 0 kts 233°
2026-05-06 07:41 38.74960 -76.93138 274 ft 29 kts 223°
2026-05-06 07:42 38.74682 -76.93469 408 ft 85 kts 219°
2026-05-06 07:42 38.74196 -76.94139 466 ft 112 kts 220°
2026-05-06 07:42 38.73514 -76.94691 493 ft 121 kts 207°
2026-05-06 07:42 38.72827 -76.95315 566 ft 124 kts 220°
2026-05-06 07:43 38.72276 -76.96151 613 ft 122 kts 230°
2026-05-06 07:43 38.71705 -76.96944 695 ft 119 kts 222°
2026-05-06 07:43 38.71099 -76.97629 688 ft 114 kts 219°
2026-05-06 07:43 38.70439 -76.98229 674 ft 119 kts 211°
2026-05-06 07:44 38.69744 -76.98824 570 ft 124 kts 213°
2026-05-06 07:44 38.69090 -76.99596 379 ft 130 kts 223°
2026-05-06 07:44 38.68533 -77.00409 528 ft 112 kts 226°
2026-05-06 07:44 38.68051 -77.01118 947 ft 100 kts 226°
2026-05-06 07:45 38.67553 -77.01844 1057 ft 119 kts 225°
2026-05-06 07:45 38.66984 -77.02706 722 ft 133 kts 226°
2026-05-06 07:45 38.66423 -77.03612 655 ft 120 kts 239°
2026-05-06 07:45 38.66112 -77.04576 922 ft 121 kts 240°
2026-05-06 07:46 38.65715 -77.05631 602 ft 136 kts 243°
2026-05-06 07:46 38.65367 -77.06673 753 ft 120 kts 243°
2026-05-06 07:46 38.65168 -77.07318 935 ft 115 kts 243°
2026-05-06 07:46 38.64871 -77.08213 1209 ft 100 kts 237°
2026-05-06 07:47 38.64519 -77.08929 1493 ft 93 kts 228°
2026-05-06 07:47 38.64072 -77.09528 1711 ft 93 kts 218°
2026-05-06 07:47 38.63533 -77.10022 1748 ft 99 kts 218°
2026-05-06 07:47 38.63105 -77.10796 1410 ft 119 kts 235°
2026-05-06 07:48 38.62662 -77.11742 839 ft 131 kts 229°
2026-05-06 07:48 38.62100 -77.12698 438 ft 132 kts 234°
2026-05-06 07:48 38.61718 -77.13690 582 ft 121 kts 240°
2026-05-06 07:48 38.61418 -77.14661 807 ft 115 kts 244°
2026-05-06 07:49 38.61187 -77.15641 945 ft 116 kts 248°
2026-05-06 07:49 38.61007 -77.16643 995 ft 117 kts 251°
2026-05-06 07:49 38.60867 -77.17689 929 ft 124 kts 253°
2026-05-06 07:49 38.60745 -77.18833 683 ft 135 kts 253°
2026-05-06 07:50 38.60410 -77.19850 543 ft 114 kts 228°
2026-05-06 07:50 38.59841 -77.20506 800 ft 112 kts 217°
2026-05-06 07:50 38.59230 -77.21146 877 ft 114 kts 216°
2026-05-06 07:50 38.58568 -77.21719 854 ft 116 kts 210°
2026-05-06 07:51 38.57843 -77.22307 815 ft 141 kts 212°
2026-05-06 07:51 38.56908 -77.23129 856 ft 183 kts 214°
2026-05-06 07:51 38.55842 -77.24038 674 ft 173 kts 215°
2026-05-06 07:51 38.55164 -77.25267 1057 ft 177 kts 237°
2026-05-06 07:52 38.54395 -77.26650 558 ft 196 kts 231°
2026-05-06 07:52 38.53626 -77.28020 505 ft 185 kts 236°
2026-05-06 07:52 38.53049 -77.29152 550 ft 112 kts 218°
2026-05-06 07:52 38.52540 -77.29581 558 ft 74 kts 206°
2026-05-06 07:53 38.52122 -77.29809 399 ft 58 kts 200°
2026-05-06 07:53 38.51796 -77.29957 622 ft 78 kts 199°
2026-05-06 07:53 38.51108 -77.30249 83 ft 113 kts 197°
2026-05-06 07:53 38.50735 -77.30387 40 ft 2 kts 189°
2026-05-06 07:54 38.50763 -77.30376 17 ft 0 kts 209°
2026-05-06 07:54 38.50743 -77.30421 14 ft 9 kts 262°
2026-05-06 07:54 38.50736 -77.30471 13 ft 3 kts 236°
2026-05-06 07:54 38.50726 -77.30490 14 ft 3 kts 227°
2026-05-06 07:55 38.50692 -77.30537 14 ft 6 kts 234°
2026-05-06 07:55 38.50678 -77.30564 14 ft 2 kts 236°
2026-05-06 07:55 38.50653 -77.30598 26 ft 13 kts 229°
2026-05-06 07:55 38.50549 -77.30659 36 ft 26 kts 202°
2026-05-06 07:56 38.50426 -77.30723 20 ft 4 kts 199°
2026-05-06 07:56 38.50386 -77.30735 15 ft 7 kts 195°
2026-05-06 07:56 38.50382 -77.30747 14 ft 0 kts 282°
2026-05-06 07:59 38.50387 -77.30746 14 ft 0 kts 274°
2026-05-06 07:59 38.50384 -77.30747 15 ft 0 kts 277°
2026-05-06 07:59 38.50381 -77.30748 14 ft 0 kts 280°
2026-05-06 08:00 38.50382 -77.30748 14 ft 0 kts 284°